Time,TemperatureF,DewpointF,PressureIn,WindDirection,WindDirectionDegrees,WindSpeedMPH,WindSpeedGustMPH,Humidity,HourlyPrecipIn,Conditions,Clouds,dailyrainin,SoftwareType,DateUTC
2016-07-30 00:17:00,69.0,55.0,-100.00,SSE,165,18.0,-999.0,61,-99.99,,,-99.99,,2016-07-30 06:17:00,
2016-07-30 00:26:00,69.0,55.0,-100.00,SSE,165,18.0,23.0,61,-99.99,,,-99.99,,2016-07-30 06:26:00,
2016-07-30 00:35:00,69.0,55.0,-100.00,SSE,165,18.0,23.0,61,-99.99,,,-99.99,,2016-07-30 06:35:00,
2016-07-30 00:45:00,69.0,55.0,-100.00,SSE,165,18.0,23.0,61,-99.99,,,-99.99,,2016-07-30 06:45:00,
2016-07-30 00:51:00,68.0,55.0,-100.00,South,169,8.0,24.0,64,-99.99,,,-99.99,,2016-07-30 06:51:00,
2016-07-30 01:15:00,68.0,55.0,-100.00,South,169,8.0,24.0,64,-99.99,,,-99.99,,2016-07-30 07:15:00,
2016-07-30 01:28:00,68.0,55.0,-100.00,South,169,8.0,24.0,64,-99.99,,,-99.99,,2016-07-30 07:28:00,
2016-07-30 01:36:00,68.0,55.0,-100.00,South,169,8.0,24.0,64,-99.99,,,-99.99,,2016-07-30 07:36:00,
2016-07-30 01:45:00,68.0,55.0,-100.00,South,169,8.0,24.0,64,-99.99,,,-99.99,,2016-07-30 07:45:00,
2016-07-30 01:51:00,65.0,56.0,-100.00,South,190,5.0,11.0,73,-99.99,,,-99.99,,2016-07-30 07:51:00,
2016-07-30 02:13:00,65.0,56.0,-100.00,South,190,5.0,11.0,73,-99.99,,,-99.99,,2016-07-30 08:13:00,
2016-07-30 02:23:00,65.0,56.0,-100.00,South,190,5.0,11.0,73,-99.99,,,-99.99,,2016-07-30 08:23:00,
2016-07-30 02:34:00,65.0,56.0,-100.00,South,190,5.0,11.0,73,-99.99,,,-99.99,,2016-07-30 08:34:00,
2016-07-30 02:46:00,65.0,56.0,-100.00,South,190,5.0,11.0,73,-99.99,,,-99.99,,2016-07-30 08:46:00,
2016-07-30 03:13:00,63.0,57.0,-100.00,SSE,151,7.0,13.0,80,-99.99,,,-99.99,,2016-07-30 09:13:00,
2016-07-30 03:23:00,63.0,57.0,-100.00,SSE,151,7.0,13.0,80,-99.99,,,-99.99,,2016-07-30 09:23:00,
2016-07-30 03:40:00,63.0,57.0,-100.00,SSE,151,7.0,-999.0,80,-99.99,,,-99.99,,2016-07-30 09:40:00,
2016-07-30 03:51:00,62.0,56.0,-100.00,South,178,6.0,-999.0,80,-99.99,,,-99.99,,2016-07-30 09:51:00,
2016-07-30 04:20:00,62.0,56.0,-100.00,South,178,6.0,-999.0,80,-99.99,,,-99.99,,2016-07-30 10:20:00,
2016-07-30 04:32:00,62.0,56.0,-100.00,South,178,6.0,-999.0,80,-99.99,,,-99.99,,2016-07-30 10:32:00,
2016-07-30 04:40:00,62.0,56.0,-100.00,South,178,6.0,-999.0,80,-99.99,,,-99.99,,2016-07-30 10:40:00,
2016-07-30 04:51:00,62.0,54.0,-100.00,SSE,164,7.0,13.0,76,-99.99,,,-99.99,,2016-07-30 10:51:00,
2016-07-30 05:22:00,62.0,54.0,-100.00,SSE,164,7.0,-999.0,76,-99.99,,,-99.99,,2016-07-30 11:22:00,
2016-07-30 05:32:00,62.0,54.0,-100.00,SSE,164,7.0,-999.0,76,-99.99,,,-99.99,,2016-07-30 11:32:00,
2016-07-30 05:42:00,62.0,54.0,-100.00,SSE,164,7.0,-999.0,76,-99.99,,,-99.99,,2016-07-30 11:42:00,
2016-07-30 05:51:00,62.0,54.0,-100.00,SSE,165,9.0,12.0,75,-99.99,,,-99.99,,2016-07-30 11:51:00,
2016-07-30 06:14:00,62.0,54.0,-100.00,SSE,165,9.0,12.0,75,-99.99,,,-99.99,,2016-07-30 12:14:00,
2016-07-30 06:25:00,62.0,54.0,-100.00,SSE,165,9.0,12.0,75,-99.99,,,-99.99,,2016-07-30 12:25:00,
2016-07-30 06:36:00,62.0,54.0,-100.00,SSE,165,9.0,12.0,75,-99.99,,,-99.99,,2016-07-30 12:36:00,
2016-07-30 06:48:00,62.0,54.0,-100.00,SSE,165,9.0,12.0,75,-99.99,,,-99.99,,2016-07-30 12:48:00,
2016-07-30 06:51:00,64.0,55.0,-100.00,SSE,164,10.0,12.0,72,-99.99,,,-99.99,,2016-07-30 12:51:00,
2016-07-30 07:14:00,64.0,55.0,-100.00,SSE,164,10.0,12.0,72,-99.99,,,-99.99,,2016-07-30 13:14:00,
2016-07-30 07:25:00,64.0,55.0,-100.00,SSE,164,10.0,12.0,72,-99.99,,,-99.99,,2016-07-30 13:25:00,
2016-07-30 07:35:00,64.0,55.0,-100.00,SSE,164,10.0,12.0,72,-99.99,,,-99.99,,2016-07-30 13:35:00,
2016-07-30 07:46:00,64.0,55.0,-100.00,SSE,164,10.0,12.0,72,-99.99,,,-99.99,,2016-07-30 13:46:00,
2016-07-30 08:24:00,69.0,54.0,-100.00,South,182,8.0,13.0,59,-99.99,,,-99.99,,2016-07-30 14:24:00,
2016-07-30 08:34:00,69.0,54.0,-100.00,South,182,8.0,13.0,59,-99.99,,,-99.99,,2016-07-30 14:34:00,
2016-07-30 08:44:00,69.0,54.0,-100.00,South,182,8.0,13.0,59,-99.99,,,-99.99,,2016-07-30 14:44:00,
2016-07-30 08:51:00,76.0,53.0,-100.00,SSW,195,9.0,-999.0,45,-99.99,,,-99.99,,2016-07-30 14:51:00,
2016-07-30 09:40:00,76.0,53.0,-100.00,SSW,195,-999.9,-999.0,45,-99.99,,,-99.99,,2016-07-30 15:40:00,